QPF
0.00 0.00 0.00 0.00 0.00 0.00 0.00 0.00 0.00 0.00 0.00 0.00 0.00 0.00 0.00 0.00 0.00 0.00 0.00 0.00 0.00 0.00 0.00 0.00 0.00 0.00 0.00 0.00 0.00 0.00 0.00 0.00 0.02 0.01 0.00 0.00 0.00 0.00 0.00 0.00 0.00 0.00 0.00 0.00
0.00 0.00 0.00 0.00 0.00 0.00 0.00 0.00 0.00 0.00 0.00 0.00 0.00 0.00 0.00 0.00 0.00 0.00 0.00 0.00 0.00 0.00 0.00 0.00 0.00 0.00 0.00 0.00 0.00 0.00 0.00 0.00 0.02 0.01 0.00 0.00 0.00 0.00 0.00 0.00 0.00 0.00 0.00 0.00
0.00 0.00 0.00 0.00 0.00 0.00 0.00 0.00 0.00 0.00 0.00 0.00 0.00 0.00 0.00 0.00 0.00 0.00 0.00 0.00 0.00 0.00 0.00 0.00 0.00 0.00 0.00 0.00 0.00 0.00 0.00 0.00 0.01 0.01 0.00 0.00 0.00 0.00 0.00 0.00 0.00 0.00 0.00 0.00
0.00 0.00 0.00 0.00 0.00 0.00 0.00 0.00 0.00 0.00 0.00 0.00 0.00 0.00 0.00 0.00 0.00 0.00 0.00 0.00 0.00 0.00 0.00 0.00 0.00 0.00 0.00 0.00 0.00 0.00 0.00 0.00 0.00 0.00 0.00 0.00 0.00 0.00 0.00 0.00 0.00 0.00 0.00 0.00
0.00 0.00 0.00 0.00 0.00 0.00 0.00 0.00 0.00 0.00 0.00 0.00 0.00 0.00 0.00 0.00 0.00 0.00 0.00 0.00 0.00 0.00 0.00 0.00 0.00 0.00 0.00 0.00 0.00 0.00 0.00 0.00 0.00 0.00 0.00 0.00 0.00 0.00 0.00 0.00 0.00 0.00 0.00 0.00
0.00 0.01 0.00 0.00 0.00 0.00 0.00 0.00 0.00 0.00 0.00 0.00 0.00 0.01 0.00 0.00 0.00 0.00 0.00 0.00 0.00 0.00 0.00 0.00 0.00 0.00 0.00 0.00 0.00 0.00 0.00 0.00 0.00 0.00 0.00 0.00 0.00 0.00 0.00 0.00 0.00 0.00 0.00 0.00
0.00 0.00 0.00 0.00 0.00 0.00 0.00 0.00 0.00 0.00 0.00 0.01 0.01 0.02 0.00 0.00 0.00 0.00 0.00 0.00 0.00 0.00 0.00 0.00 0.00 0.00 0.00 0.00 0.00 0.00 0.00 0.00 0.00 0.00 0.00 0.00 0.00 0.00 0.00 0.00 0.00 0.00 0.00 0.00
0.00 0.00 0.00 0.00 0.00 0.00 0.00 0.00 0.00 0.01 0.02 0.02 0.01 0.01 0.01 0.01 0.00 0.00 0.00 0.00 0.00 0.00 0.00 0.00 0.00 0.00 0.00 0.00 0.00 0.00 0.00 0.00 0.00 0.00 0.00 0.00 0.00 0.00 0.00 0.00 0.00 0.00 0.00 0.00
0.00 0.00 0.00 0.00 0.00 0.00 0.00 0.01 0.02 0.02 0.00 0.01 0.01 0.01 0.00 0.00 0.00 0.00 0.00 0.00 0.00 0.00 0.00 0.00 0.00 0.00 0.00 0.00 0.00 0.00 0.00 0.00 0.00 0.00 0.00 0.00 0.00 0.00 0.00 0.00 0.00 0.00 0.00 0.00
0.00 0.00 0.00 0.00 0.00 0.00 0.00 0.00 0.00 0.00 0.00 0.01 0.01 0.01 0.00 0.00 0.00 0.00 0.00 0.00 0.00 0.00 0.00 0.00 0.00 0.00 0.00 0.00 0.00 0.00 0.00 0.00 0.00 0.00 0.00 0.00 0.00 0.00 0.00 0.00 0.00 0.00 0.00 0.00
0.00 0.00 0.00 0.00 0.00 0.00 0.00 0.00 0.00 0.00 0.01 0.01 0.01 0.01 0.01 0.00 0.00 0.00 0.00 0.00 0.00 0.00 0.00 0.00 0.00 0.00 0.00 0.00 0.00 0.00 0.00 0.00 0.00 0.00 0.00 0.00 0.00 0.00 0.00 0.00 0.00 0.00 0.00 0.00
0.00 0.00 0.00 0.00 0.00 0.00 0.00 0.00 0.00 0.00 0.00 0.00 0.00 0.00 0.00 0.00 0.00 0.00 0.00 0.00 0.00 0.00 0.00 0.00 0.00 0.00 0.00 0.00 0.00 0.00 0.00 0.00 0.00 0.00 0.00 0.00 0.00 0.00 0.00 0.00 0.00 0.00 0.00 0.00
0.00 0.00 0.00 0.00 0.00 0.00 0.00 0.00 0.00 0.00 0.00 0.00 0.00 0.00 0.00 0.00 0.00 0.00 0.00 0.00 0.00 0.00 0.00 0.00 0.00 0.00 0.00 0.00 0.00 0.00 0.00 0.00 0.00 0.00 0.00 0.00 0.00 0.00 0.00 0.00 0.00 0.00 0.00 0.00
0.00 0.00 0.00 0.00 0.00 0.00 0.00 0.00 0.00 0.00 0.00 0.00 0.00 0.00 0.00 0.00 0.00 0.00 0.01 0.01 0.00 0.00 0.00 0.00 0.00 0.00 0.00 0.00 0.00 0.00 0.00 0.00 0.00 0.00 0.00 0.00 0.00 0.00 0.00 0.00 0.00 0.00 0.00 0.00
0.00 0.00 0.00 0.00 0.00 0.00 0.00 0.00 0.00 0.00 0.00 0.00 0.00 0.00 0.00 0.00 0.01 0.01 0.01 0.01 0.00 0.00 0.00 0.00 0.00 0.00 0.00 0.00 0.00 0.00 0.00 0.00 0.00 0.00 0.00 0.00 0.00 0.00 0.00 0.00 0.00 0.00 0.00 0.00
0.00 0.00 0.00 0.00 0.00 0.00 0.00 0.00 0.00 0.00 0.00 0.00 0.00 0.00 0.00 0.01 0.01 0.00 0.00 0.01 0.00 0.00 0.00 0.00 0.00 0.00 0.00 0.00 0.00 0.00 0.00 0.00 0.00 0.00 0.01 0.00 0.00 0.00 0.00 0.00 0.00 0.00 0.00 0.00
0.00 0.00 0.00 0.00 0.00 0.00 0.00 0.00 0.00 0.00 0.00 0.00 0.00 0.00 0.00 0.00 0.00 0.00 0.00 0.01 0.01 0.01 0.00 0.00 0.00 0.00 0.00 0.00 0.00 0.01 0.01 0.01 0.00 0.00 0.00 0.00 0.00 0.00 0.00 0.00 0.00 0.00 0.00 0.00
0.00 0.00 0.00 0.00 0.00 0.00 0.00 0.00 0.00 0.00 0.00 0.00 0.00 0.00 0.00 0.00 0.00 0.00 0.00 0.00 0.00 0.00 0.00 0.00 0.00 0.00 0.00 0.00 0.00 0.01 0.00 0.00 0.00 0.00 0.00 0.00 0.00 0.00 0.00 0.00 0.00 0.00 0.00 0.00
0.00 0.00 0.00 0.00 0.00 0.00 0.00 0.00 0.00 0.00 0.00 0.00 0.00 0.00 0.00 0.00 0.00 0.00 0.00 0.00 0.00 0.00 0.00 0.00 0.00 0.00 0.00 0.00 0.00 0.00 0.00 0.00 0.00 0.00 0.00 0.00 0.00 0.00 0.00 0.00 0.00 0.00 0.00 0.00
0.00 0.00 0.00 0.00 0.00 0.00 0.00 0.00 0.00 0.00 0.00 0.00 0.00 0.00 0.00 0.00 0.00 0.00 0.00 0.00 0.00 0.00 0.00 0.00 0.00 0.00 0.01 0.01 0.01 0.00 0.00 0.00 0.00 0.00 0.00 0.00 0.00 0.00 0.00 0.00 0.00 0.00 0.00 0.00
0.00 0.00 0.00 0.00 0.00 0.00 0.00 0.00 0.00 0.00 0.00 0.00 0.00 0.00 0.00 0.00 0.00 0.00 0.00 0.00 0.00 0.01 0.01 0.01 0.00 0.00 0.00 0.01 0.00 0.00 0.00 0.00 0.00 0.00 0.00 0.00 0.00 0.00 0.00 0.00 0.00 0.00 0.00 0.00
0.00 0.00 0.00 0.00 0.00 0.00 0.00 0.00 0.00 0.00 0.00 0.00 0.00 0.00 0.00 0.00 0.00 0.00 0.00 0.00 0.00 0.01 0.00 0.00 0.00 0.01 0.01 0.00 0.00 0.00 0.00 0.00 0.00 0.00 0.00 0.00 0.00 0.00 0.00 0.00 0.00 0.00 0.00 0.00
0.00 0.00 0.00 0.00 0.00 0.00 0.00 0.00 0.00 0.00 0.00 0.00 0.00 0.00 0.00 0.00 0.00 0.00 0.00 0.01 0.00 0.01 0.00 0.01 0.01 0.01 0.01 0.00 0.00 0.00 0.00 0.00 0.00 0.00 0.00 0.00 0.00 0.00 0.00 0.00 0.00 0.00 0.00 0.00
0.00 0.00 0.00 0.00 0.00 0.00 0.00 0.00 0.00 0.00 0.00 0.00 0.00 0.00 0.00 0.00 0.00 0.00 0.00 0.01 0.02 0.01 0.01 0.02 0.02 0.01 0.00 0.00 0.00 0.00 0.00 0.00 0.00 0.00 0.00 0.00 0.00 0.00 0.00 0.00 0.00 0.00 0.00 0.00
0.00 0.00 0.00 0.00 0.00 0.00 0.00 0.00 0.00 0.00 0.00 0.00 0.00 0.00 0.00 0.00 0.00 0.00 0.00 0.00 0.01 0.01 0.01 0.02 0.02 0.01 0.00 0.00 0.00 0.00 0.00 0.00 0.00 0.00 0.00 0.00 0.00 0.00 0.00 0.00 0.00 0.00 0.00 0.00
0.00 0.00 0.00 0.00 0.00 0.00 0.00 0.00 0.00 0.00 0.00 0.00 0.00 0.00 0.00 0.00 0.00 0.00 0.00 0.00 0.00 0.00 0.00 0.00 0.01 0.00 0.00 0.00 0.00 0.00 0.00 0.00 0.00 0.00 0.00 0.00 0.00 0.00 0.00 0.00 0.00 0.00 0.00 0.00
0.00 0.00 0.00 0.00 0.00 0.00 0.00 0.00 0.00 0.00 0.00 0.00 0.00 0.00 0.00 0.00 0.00 0.00 0.00 0.00 0.00 0.00 0.00 0.00 0.00 0.01 0.00 0.00 0.00 0.00 0.00 0.00 0.00 0.00 0.00 0.00 0.00 0.00 0.00 0.00 0.00 0.00 0.00 0.00
MSLP
1022.89 1022.24 1021.95 1021.38 1020.88 1020.68 1020.81 1020.72 1020.61 1018.73 1018.19 1017.17 1016.14 1015.75 1015.23 1014.90 1014.76 1014.69 1014.66 1014.41 1013.82 1013.43 1013.06 1012.61 1012.12 1011.59 1011.15 1010.62 1009.91 1009.40 1008.73 1008.00 1007.57 1007.33 1006.95 1006.70 1006.39 1005.21 1004.30 1003.42 1002.91 1002.69 1003.61 1004.63
1023.50 1022.79 1022.21 1021.09 1020.31 1019.95 1019.78 1019.63 1019.07 1018.16 1016.95 1016.96 1015.99 1015.53 1015.31 1015.33 1015.18 1015.05 1014.86 1014.61 1014.06 1013.47 1012.84 1012.20 1011.67 1011.21 1010.66 1010.14 1009.40 1008.91 1008.11 1007.39 1006.69 1006.44 1006.38 1005.92 1006.31 1005.73 1004.33 1003.74 1002.71 1002.38 1002.94 1004.04
1023.50 1022.98 1022.39 1020.81 1019.06 1018.88 1018.84 1018.98 1018.61 1017.92 1017.35 1016.65 1016.57 1016.59 1016.22 1016.00 1015.71 1015.18 1014.87 1014.56 1013.75 1013.04 1012.45 1011.78 1011.29 1010.87 1010.36 1009.57 1008.73 1008.11 1007.62 1006.81 1006.14 1005.62 1005.31 1005.06 1005.26 1005.31 1004.60 1004.12 1002.63 1002.37 1002.40 1003.47
1024.31 1023.76 1022.13 1019.44 1018.85 1018.78 1018.44 1018.44 1018.29 1017.80 1017.54 1017.65 1017.44 1017.01 1016.37 1015.85 1015.38 1014.77 1014.41 1013.82 1013.16 1012.59 1011.86 1011.20 1010.56 1010.12 1009.74 1009.03 1008.21 1007.63 1007.04 1006.39 1005.59 1005.10 1004.98 1004.72 1004.76 1004.79 1004.40 1004.15 1002.78 1002.14 1001.87 1002.84
1025.11 1024.12 1021.76 1019.56 1018.94 1018.92 1018.40 1017.58 1018.15 1017.97 1017.83 1017.62 1017.14 1016.65 1015.81 1015.50 1015.05 1014.74 1014.23 1013.49 1012.68 1012.15 1011.50 1010.71 1010.07 1009.58 1009.11 1008.52 1007.78 1007.26 1006.57 1005.79 1005.11 1004.95 1004.69 1004.55 1004.03 1003.96 1003.88 1003.83 1002.93 1001.71 1001.46 1002.24
1024.87 1024.79 1022.54 1019.02 1018.64 1018.50 1018.55 1017.63 1017.96 1018.12 1017.72 1017.44 1017.24 1016.72 1015.65 1015.27 1014.76 1014.24 1013.69 1012.89 1012.27 1011.65 1010.87 1010.19 1009.50 1009.04 1008.48 1007.87 1007.47 1006.81 1006.09 1005.32 1005.06 1004.64 1004.23 1003.97 1003.98 1003.25 1002.94 1002.92 1002.52 1001.46 1001.12 1001.74
1023.94 1023.52 1020.99 1018.89 1018.66 1018.47 1018.82 1018.15 1017.71 1017.66 1017.34 1017.33 1017.20 1016.68 1015.68 1015.05 1014.39 1013.68 1012.77 1012.02 1011.36 1010.94 1010.20 1009.41 1008.78 1008.38 1007.76 1007.25 1006.69 1006.18 1005.58 1004.93 1004.61 1004.42 1004.08 1003.06 1002.50 1002.17 1001.85 1002.12 1002.05 1001.23 1000.79 1001.55
1022.86 1022.55 1020.57 1018.49 1018.29 1019.23 1018.38 1017.37 1017.47 1017.27 1017.46 1017.18 1016.70 1015.87 1015.00 1014.45 1013.85 1013.12 1012.30 1011.37 1010.50 1009.99 1009.11 1008.42 1008.24 1007.79 1006.98 1006.46 1006.15 1005.65 1004.91 1004.45 1004.06 1003.56 1003.14 1002.17 1001.52 1001.00 1001.01 1000.87 1001.57 1001.10 1000.57 1001.58
1022.13 1020.29 1018.80 1018.62 1018.46 1018.01 1017.86 1017.60 1017.64 1017.58 1017.08 1016.64 1015.88 1015.30 1014.63 1013.85 1013.03 1012.10 1011.41 1010.73 1009.95 1009.06 1008.31 1007.48 1007.28 1007.00 1006.40 1005.73 1005.36 1004.66 1004.08 1003.72 1003.36 1002.71 1001.94 1000.80 999.64 999.36 999.46 1000.59 1001.24 1001.05 1000.36 1001.29
1020.99 1019.17 1019.09 1018.70 1018.11 1017.65 1017.67 1017.62 1017.46 1017.24 1016.75 1016.31 1015.78 1014.94 1013.89 1013.05 1012.16 1011.22 1010.26 1009.56 1008.89 1008.12 1007.54 1006.75 1006.44 1006.22 1005.95 1005.37 1004.63 1004.12 1003.31 1002.94 1002.57 1002.10 1001.24 1000.17 998.68 997.95 999.02 999.97 1000.68 1000.33 999.87 1001.12
1019.72 1019.18 1018.58 1018.34 1018.08 1018.00 1017.91 1017.73 1017.35 1016.86 1016.49 1015.85 1015.17 1014.01 1013.42 1012.27 1011.46 1010.56 1009.68 1008.91 1008.28 1007.60 1006.86 1006.21 1005.95 1005.52 1005.40 1005.07 1004.45 1003.55 1002.73 1002.25 1001.80 1001.49 1000.58 999.54 998.52 998.21 998.61 999.32 999.85 999.92 999.70 1000.71
1018.95 1018.63 1018.42 1018.28 1018.17 1018.23 1017.96 1017.57 1017.18 1016.54 1015.45 1015.31 1014.92 1013.67 1012.79 1011.76 1010.98 1010.16 1009.00 1008.24 1007.45 1006.80 1006.16 1005.36 1005.03 1004.71 1004.64 1004.51 1003.91 1002.95 1002.17 1001.80 1001.26 1000.86 1000.35 999.51 999.18 998.53 998.48 999.09 999.87 999.44 999.48 1000.50
1018.43 1018.31 1018.55 1018.55 1018.53 1018.33 1017.77 1017.21 1016.81 1016.59 1015.97 1014.75 1014.05 1013.44 1012.45 1011.29 1010.28 1009.25 1008.43 1007.59 1006.79 1005.89 1005.37 1004.78 1004.25 1003.91 1004.00 1003.60 1002.89 1002.47 1001.94 1001.35 1000.76 1000.15 999.82 999.49 999.10 998.68 999.07 999.47 999.86 998.79 999.73 1000.96
1018.28 1018.19 1018.44 1018.74 1018.15 1017.83 1017.76 1017.30 1016.95 1016.39 1015.70 1014.94 1013.97 1013.00 1012.04 1010.89 1009.63 1008.83 1007.71 1006.79 1005.92 1005.16 1004.56 1004.09 1003.58 1003.08 1002.92 1002.56 1002.04 1001.63 1000.97 1000.87 1000.45 999.51 999.56 999.44 998.77 998.89 999.26 999.45 1000.08 1000.02 1000.59 1001.68
1018.15 1018.54 1018.65 1018.30 1018.14 1018.14 1017.89 1017.49 1016.88 1016.23 1015.46 1014.63 1013.89 1012.85 1011.77 1010.54 1009.31 1007.99 1006.82 1005.91 1005.04 1004.26 1003.52 1003.03 1002.63 1002.18 1001.95 1001.64 1001.30 1000.93 1000.29 1000.14 1000.01 999.61 999.47 999.20 998.90 999.30 999.87 1000.46 1001.04 1001.29 1002.18 1003.03
1018.13 1018.43 1018.53 1018.62 1018.63 1018.44 1018.16 1017.75 1017.18 1016.34 1015.54 1014.51 1013.56 1012.51 1011.45 1010.21 1008.67 1007.05 1005.74 1004.74 1004.03 1003.35 1002.83 1002.40 1001.99 1001.49 1001.16 1000.90 1000.69 1000.29 1000.12 1000.00 999.81 999.38 998.74 998.51 999.28 1000.17 1000.78 1001.41 1001.90 1002.60 1003.40 1004.14
1018.08 1018.26 1018.59 1018.85 1018.91 1018.63 1018.30 1017.85 1017.32 1016.45 1015.48 1014.59 1013.62 1012.37 1011.00 1009.53 1008.06 1006.44 1005.02 1004.04 1003.50 1002.97 1002.42 1001.82 1001.38 1000.90 1000.55 1000.24 1000.12 1000.23 1000.32 1000.17 999.78 999.11 999.26 999.59 1000.26 1001.05 1001.72 1002.39 1003.35 1004.06 1004.65 1005.16
1018.17 1018.50 1018.87 1019.13 1018.92 1018.58 1018.13 1017.74 1017.12 1016.45 1015.56 1014.76 1013.70 1012.37 1010.96 1009.55 1007.98 1006.27 1004.84 1003.98 1003.14 1002.47 1002.04 1001.67 1001.21 1000.43 1000.00 999.29 999.85 1000.38 1000.70 1000.69 1000.46 1000.26 1000.50 1000.89 1001.41 1002.09 1002.71 1003.60 1004.55 1005.22 1005.57 1005.70
1018.13 1018.55 1018.85 1018.91 1018.79 1018.40 1018.00 1017.48 1017.01 1016.35 1015.65 1014.75 1013.72 1012.49 1011.26 1009.81 1008.29 1006.67 1005.13 1003.98 1002.76 1002.05 1001.65 1001.59 1001.37 1000.94 1000.77 1000.42 1000.54 1001.07 1001.30 1001.41 1001.34 1001.38 1001.82 1002.22 1002.90 1003.43 1004.09 1004.55 1004.98 1005.46 1005.66 1005.70
1018.13 1018.43 1018.69 1018.63 1018.49 1018.10 1017.70 1017.40 1016.94 1016.36 1015.63 1014.76 1013.93 1012.80 1011.49 1010.07 1008.72 1007.23 1005.96 1005.00 1004.17 1003.23 1002.65 1002.57 1002.28 1002.01 1001.94 1001.80 1001.76 1001.84 1002.27 1002.49 1002.60 1002.82 1003.11 1003.46 1003.82 1004.08 1004.24 1004.51 1005.15 1005.78 1006.26 1006.41
1017.89 1018.14 1018.38 1018.32 1018.17 1017.88 1017.67 1017.30 1016.88 1016.26 1015.51 1014.87 1014.11 1013.26 1012.11 1010.87 1009.49 1008.20 1006.83 1005.85 1005.23 1004.65 1004.25 1003.91 1003.56 1003.35 1003.14 1003.04 1002.95 1002.98 1003.05 1003.22 1003.47 1003.62 1003.86 1004.19 1004.49 1004.79 1005.08 1005.41 1005.76 1006.08 1006.53 1006.89
1017.63 1017.87 1018.00 1017.93 1017.88 1017.64 1017.39 1017.01 1016.81 1016.13 1015.55 1014.88 1014.20 1013.57 1012.61 1011.52 1010.35 1009.22 1008.23 1007.42 1006.62 1005.86 1005.45 1005.15 1004.92 1004.65 1004.55 1004.40 1004.35 1004.26 1004.23 1004.30 1004.30 1004.38 1004.70 1005.01 1005.25 1005.46 1005.72 1006.12 1006.51 1006.89 1007.29 1007.63
1017.27 1017.48 1017.55 1017.57 1017.56 1017.41 1017.09 1016.84 1016.62 1015.96 1015.49 1014.89 1014.35 1013.78 1013.15 1012.34 1011.41 1010.32 1009.37 1008.66 1007.96 1007.34 1006.87 1006.54 1006.22 1005.94 1005.81 1005.68 1005.52 1005.44 1005.39 1005.33 1005.31 1005.39 1005.59 1005.80 1006.11 1006.48 1006.84 1007.13 1007.40 1007.66 1007.97 1008.25
1016.85 1017.04 1017.10 1017.10 1017.05 1017.03 1016.83 1016.62 1016.25 1015.67 1015.20 1014.73 1014.36 1013.90 1013.25 1012.55 1011.83 1011.20 1010.58 1009.79 1009.05 1008.53 1008.01 1007.65 1007.28 1006.99 1006.91 1006.85 1006.68 1006.59 1006.67 1006.72 1006.67 1006.81 1006.96 1007.13 1007.41 1007.62 1007.83 1007.97 1008.16 1008.40 1008.63 1008.94
1016.35 1016.59 1016.66 1016.70 1016.66 1016.65 1016.48 1016.24 1015.89 1015.41 1014.89 1014.47 1014.23 1013.84 1013.32 1012.77 1012.54 1011.82 1011.05 1010.52 1009.84 1009.37 1008.98 1008.69 1008.34 1008.20 1008.16 1008.08 1007.77 1007.57 1007.49 1007.43 1007.44 1007.65 1007.87 1008.04 1008.19 1008.36 1008.53 1008.67 1008.79 1008.96 1009.21 1009.48
1015.92 1016.08 1016.27 1016.34 1016.33 1016.36 1016.19 1015.96 1015.69 1015.28 1014.74 1014.47 1014.14 1013.75 1013.33 1012.82 1012.46 1012.09 1011.57 1010.92 1010.47 1010.20 1010.01 1009.62 1009.02 1008.96 1008.88 1008.65 1008.54 1008.47 1008.37 1008.31 1008.37 1008.45 1008.54 1008.67 1008.84 1008.98 1009.16 1009.31 1009.39 1009.45 1009.50 1009.74
1015.51 1015.65 1015.87 1015.97 1016.03 1016.01 1015.81 1015.66 1015.39 1015.01 1014.44 1014.20 1014.07 1013.65 1013.39 1013.03 1012.68 1012.39 1012.02 1011.63 1011.08 1010.74 1010.53 1010.36 1010.09 1009.69 1009.54 1009.35 1009.27 1009.19 1009.07 1009.08 1009.07 1009.01 1008.99 1009.09 1009.27 1009.52 1009.65 1009.73 1009.71 1009.75 1009.83 1009.94
Thickness
5571 5570 5560 5554 5552 5549 5534 5524 5500 5521 5508 5508 5512 5504 5500 5486 5477 5468 5464 5462 5463 5460 5459 5458 5453 5450 5449 5449 5452 5453 5458 5461 5459 5459 5460 5462 5478 5503 5523 5540 5554 5566 5574 5583
5552 5555 5550 5549 5548 5542 5532 5523 5515 5513 5511 5500 5498 5493 5484 5466 5458 5452 5448 5445 5447 5448 5449 5449 5446 5441 5441 5442 5445 5445 5450 5454 5457 5454 5453 5457 5461 5483 5505 5524 5541 5555 5564 5568
5531 5545 5534 5525 5547 5539 5532 5517 5503 5492 5491 5492 5477 5463 5457 5448 5443 5439 5435 5433 5438 5440 5440 5440 5438 5434 5431 5435 5441 5441 5442 5449 5452 5454 5454 5455 5456 5474 5485 5505 5530 5545 5556 5559
5515 5518 5501 5541 5536 5526 5519 5507 5495 5486 5478 5459 5446 5442 5443 5444 5434 5432 5429 5428 5430 5431 5433 5435 5434 5430 5426 5428 5432 5434 5437 5441 5447 5447 5446 5448 5449 5462 5474 5489 5518 5536 5552 5554
5488 5499 5520 5532 5519 5505 5499 5507 5481 5466 5457 5450 5443 5433 5438 5437 5429 5421 5418 5419 5421 5422 5423 5425 5426 5423 5422 5423 5424 5425 5431 5437 5441 5439 5438 5436 5445 5455 5469 5479 5504 5530 5545 5551
5494 5461 5463 5522 5514 5503 5485 5467 5471 5454 5445 5434 5425 5403 5417 5423 5420 5415 5413 5413 5410 5411 5414 5417 5420 5417 5417 5419 5417 5417 5424 5429 5431 5434 5434 5435 5436 5451 5465 5477 5496 5521 5538 5547
5487 5472 5491 5506 5494 5486 5447 5446 5458 5447 5436 5421 5407 5404 5404 5406 5404 5405 5406 5407 5408 5404 5406 5411 5413 5411 5413 5414 5413 5412 5417 5422 5424 5425 5427 5437 5443 5452 5464 5476 5490 5514 5533 5540
5486 5466 5457 5497 5488 5449 5454 5459 5444 5433 5418 5408 5405 5402 5401 5396 5392 5392 5392 5395 5401 5397 5402 5408 5403 5402 5408 5409 5407 5407 5411 5414 5417 5423 5427 5439 5445 5455 5467 5481 5487 5503 5525 5529
5479 5481 5497 5487 5469 5464 5450 5438 5425 5413 5410 5401 5397 5394 5389 5385 5385 5386 5385 5384 5388 5390 5392 5402 5398 5396 5397 5404 5402 5405 5407 5409 5412 5420 5428 5441 5454 5460 5474 5473 5481 5495 5520 5526
5480 5495 5479 5471 5464 5454 5439 5425 5415 5407 5400 5391 5381 5381 5381 5379 5377 5377 5379 5377 5379 5380 5381 5389 5390 5389 5388 5392 5397 5398 5403 5404 5409 5415 5427 5441 5459 5470 5469 5471 5479 5495 5517 5518
5482 5481 5478 5462 5452 5436 5423 5414 5406 5400 5391 5383 5376 5378 5372 5373 5370 5369 5368 5368 5367 5366 5367 5373 5376 5380 5379 5381 5384 5391 5396 5399 5405 5412 5423 5440 5454 5461 5466 5475 5483 5494 5511 5519
5472 5474 5460 5449 5437 5423 5413 5405 5398 5391 5391 5380 5367 5369 5367 5365 5361 5358 5360 5359 5359 5358 5358 5362 5364 5368 5371 5372 5376 5383 5391 5394 5403 5408 5418 5434 5441 5454 5465 5476 5481 5497 5507 5513
5471 5466 5448 5435 5423 5412 5404 5402 5393 5379 5372 5372 5369 5360 5357 5356 5355 5353 5350 5349 5350 5354 5354 5355 5357 5362 5364 5368 5374 5377 5383 5390 5398 5407 5416 5426 5437 5449 5457 5468 5479 5501 5504 5507
5463 5452 5439 5424 5415 5410 5398 5389 5380 5372 5366 5361 5358 5355 5352 5351 5353 5347 5344 5344 5346 5350 5353 5353 5356 5361 5364 5367 5372 5377 5385 5387 5390 5405 5410 5419 5436 5446 5457 5470 5474 5487 5496 5497
5452 5437 5424 5419 5410 5398 5387 5378 5373 5365 5361 5356 5350 5347 5347 5345 5344 5345 5344 5343 5347 5352 5355 5357 5360 5364 5367 5371 5375 5379 5384 5383 5381 5391 5401 5416 5431 5442 5452 5459 5467 5476 5478 5481
5443 5430 5417 5404 5394 5384 5375 5367 5359 5356 5351 5350 5347 5346 5343 5342 5344 5348 5349 5351 5353 5355 5358 5360 5364 5370 5374 5375 5376 5378 5377 5375 5378 5391 5409 5425 5432 5437 5446 5453 5459 5462 5466 5471
5430 5419 5407 5393 5381 5374 5365 5359 5351 5348 5346 5344 5342 5342 5342 5345 5347 5351 5354 5356 5357 5359 5363 5368 5372 5376 5378 5379 5378 5374 5371 5375 5386 5401 5411 5420 5426 5431 5437 5443 5446 5449 5451 5458
5419 5406 5393 5381 5374 5367 5360 5354 5348 5343 5341 5339 5339 5339 5341 5343 5348 5355 5361 5361 5364 5368 5371 5373 5375 5381 5384 5389 5381 5376 5373 5377 5385 5396 5404 5410 5418 5424 5431 5433 5435 5438 5444 5455
5409 5397 5386 5375 5368 5362 5356 5351 5345 5340 5337 5338 5337 5339 5340 5344 5349 5357 5365 5369 5375 5379 5380 5378 5377 5379 5379 5383 5382 5376 5375 5378 5385 5392 5397 5404 5412 5419 5424 5430 5435 5439 5446 5455
5398 5389 5378 5370 5364 5359 5354 5347 5341 5336 5336 5338 5336 5338 5342 5346 5350 5357 5363 5367 5369 5374 5375 5373 5375 5376 5375 5376 5378 5378 5375 5376 5382 5387 5392 5398 5405 5416 5425 5431 5434 5437 5441 5447
5392 5383 5372 5365 5359 5354 5349 5343 5339 5335 5336 5337 5336 5336 5340 5343 5350 5356 5364 5365 5366 5367 5366 5366 5369 5371 5373 5373 5373 5375 5377 5380 5384 5389 5396 5401 5408 5415 5421 5427 5431 5435 5438 5441
5386 5377 5368 5362 5355 5350 5346 5342 5336 5334 5334 5335 5336 5335 5339 5343 5348 5352 5356 5359 5361 5362 5363 5364 5364 5366 5366 5368 5369 5374 5378 5382 5388 5393 5397 5402 5408 5413 5419 5423 5426 5428 5429 5431
5380 5372 5365 5358 5351 5346 5344 5339 5334 5333 5331 5333 5334 5334 5335 5338 5341 5346 5350 5353 5355 5357 5357 5358 5360 5361 5362 5364 5367 5370 5373 5379 5384 5389 5394 5399 5403 5406 5410 5413 5416 5418 5420 5421
5375 5368 5360 5355 5350 5344 5340 5335 5334 5332 5331 5333 5333 5333 5335 5336 5338 5340 5343 5347 5350 5351 5353 5355 5357 5359 5360 5362 5365 5367 5368 5371 5377 5382 5387 5391 5394 5398 5401 5404 5407 5409 5412 5414
5370 5363 5356 5351 5346 5341 5337 5334 5333 5330 5330 5331 5331 5331 5333 5335 5333 5337 5342 5344 5347 5348 5349 5350 5353 5353 5353 5356 5360 5363 5367 5371 5375 5378 5381 5385 5388 5391 5394 5397 5401 5404 5406 5409
5364 5358 5350 5346 5342 5337 5334 5332 5330 5329 5328 5326 5328 5330 5331 5332 5334 5336 5338 5343 5344 5344 5343 5345 5350 5350 5351 5355 5357 5360 5363 5368 5371 5375 5378 5381 5384 5387 5389 5393 5396 5400 5405 5408
5358 5353 5346 5341 5338 5334 5331 5329 5327 5326 5328 5326 5325 5328 5329 5330 5331 5332 5334 5336 5340 5341 5342 5342 5344 5348 5350 5352 5354 5356 5360 5363 5367 5371 5375 5378 5380 5383 5386 5390 5395 5399 5402 5405